Terminal Aerodrome Forecast
Issued by NWS Charleston, WV

Current Version | Previous Version | Text Only | Print | Product List | Glossary Off
Versions: 1 2 3 4 5 6 7 8 9 10 11 12 13 14 15 16 17 18 19 20 21 22 23 24 25 26 27

000
FTUS41 KRLX 280200 AAA
TAFHTS
TAF AMD
KHTS 280216Z 2802/2824 35007KT P6SM SCT025
      TEMPO 2802/2804 BKN025
     FM280600 VRB03KT P6SM SCT030
     FM280800 00000KT P6SM FEW150
     FM281500 00000KT P6SM FEW035
     FM281700 00000KT P6SM SCT200=

USA.gov is the U.S. government's official web portal to all federal, state and local government web resources and services.